Terug naar catalogus

STARLINK-30345

ActiefCommunicatieVLEO
NORAD 57701·PAYLOAD·🇺🇸 United States

Gelanceerd Aug 27, 2023 vanaf Cape Canaveral Space Force Station

Loading…

Volgende Passages (komende 24 uur)

TLE

VersSource: CelesTrak SupGP

Epoch: Sep 15, 2026, 02:04 UTC

1 57701C 23129D   26258.08659722  .00045106  00000+0  16339-2 0  2586
2 57701  43.0007 128.2097 0001492 273.0962 294.7364 15.27552771    18

Volg STARLINK-30345 in realtime met AllMySat

Download on the App Store